Year,Month,Day,Hour,Minute,Value (Times are PST for temperature in C)
2014,08,12,00,00,13.90
2014,08,12,00,01,13.90
2014,08,12,00,02,13.90
2014,08,12,00,03,13.80
2014,08,12,00,04,13.80
2014,08,12,00,05,13.80
2014,08,12,00,06,13.80
2014,08,12,00,07,13.80
2014,08,12,00,08,13.80
2014,08,12,00,09,13.80
2014,08,12,00,10,13.80
2014,08,12,00,11,13.80
2014,08,12,00,12,13.80
2014,08,12,00,13,13.80
2014,08,12,00,14,13.80
2014,08,12,00,15,13.80
2014,08,12,00,16,13.80
2014,08,12,00,17,13.80
2014,08,12,00,18,13.80
2014,08,12,00,19,13.90
2014,08,12,00,20,13.90
2014,08,12,00,21,13.90
2014,08,12,00,22,13.90
2014,08,12,00,23,14.00
2014,08,12,00,24,14.00
2014,08,12,00,25,14.00
2014,08,12,00,26,14.00
2014,08,12,00,27,14.10
2014,08,12,00,28,14.10
2014,08,12,00,29,14.10
2014,08,12,00,30,14.20
2014,08,12,00,31,14.20
2014,08,12,00,32,14.20
2014,08,12,00,33,14.20
2014,08,12,00,34,14.20
2014,08,12,00,35,14.30
2014,08,12,00,36,14.30
2014,08,12,00,37,14.40
2014,08,12,00,38,14.50
2014,08,12,00,39,14.60
2014,08,12,00,40,14.70
2014,08,12,00,41,14.70
2014,08,12,00,42,14.80
2014,08,12,00,43,14.80
2014,08,12,00,44,14.80
2014,08,12,00,45,14.90
2014,08,12,00,46,14.90
2014,08,12,00,47,15.00
2014,08,12,00,48,15.10
2014,08,12,00,49,15.10
2014,08,12,00,50,15.10
2014,08,12,00,51,15.20
2014,08,12,00,52,15.20
2014,08,12,00,53,15.20
2014,08,12,00,54,15.20
2014,08,12,00,55,15.20
2014,08,12,00,56,15.20
2014,08,12,00,57,15.10
2014,08,12,00,58,15.10
2014,08,12,00,59,15.10
2014,08,12,01,00,15.10
2014,08,12,01,01,15.10
2014,08,12,01,02,15.10
2014,08,12,01,03,15.10
2014,08,12,01,04,15.10
2014,08,12,01,05,15.20
2014,08,12,01,06,15.20
2014,08,12,01,07,15.20
2014,08,12,01,08,15.20
2014,08,12,01,09,15.30
2014,08,12,01,10,15.30
2014,08,12,01,11,15.40
2014,08,12,01,12,15.40
2014,08,12,01,13,15.50
2014,08,12,01,14,15.60
2014,08,12,01,15,15.60
2014,08,12,01,16,15.70
2014,08,12,01,17,15.80
2014,08,12,01,18,15.80
2014,08,12,01,19,15.80
2014,08,12,01,20,15.80
2014,08,12,01,21,15.80
2014,08,12,01,22,15.80
2014,08,12,01,23,15.80
2014,08,12,01,24,15.80
2014,08,12,01,25,15.70
2014,08,12,01,26,15.70
2014,08,12,01,27,15.70
2014,08,12,01,28,15.70
2014,08,12,01,29,15.70
2014,08,12,01,30,15.70
2014,08,12,01,31,15.70
2014,08,12,01,32,15.70
2014,08,12,01,33,15.70
2014,08,12,01,34,15.70
2014,08,12,01,35,15.70
2014,08,12,01,36,15.70
2014,08,12,01,37,15.60
2014,08,12,01,38,15.60
2014,08,12,01,39,15.60
2014,08,12,01,40,15.60
2014,08,12,01,41,15.50
2014,08,12,01,42,15.40
2014,08,12,01,43,15.40
2014,08,12,01,44,15.30
2014,08,12,01,45,15.30
2014,08,12,01,46,15.20
2014,08,12,01,47,15.20
2014,08,12,01,48,15.20
2014,08,12,01,49,15.10
2014,08,12,01,50,15.00
2014,08,12,01,51,15.00
2014,08,12,01,52,14.90
2014,08,12,01,53,14.80
2014,08,12,01,54,14.80
2014,08,12,01,55,14.70
2014,08,12,01,56,14.70
2014,08,12,01,57,14.60
2014,08,12,01,58,14.60
2014,08,12,01,59,14.60
2014,08,12,02,00,14.60
2014,08,12,02,01,14.60
2014,08,12,02,02,14.60
2014,08,12,02,03,14.60
2014,08,12,02,04,14.50
2014,08,12,02,05,14.50
2014,08,12,02,06,14.50
2014,08,12,02,07,14.50
2014,08,12,02,08,14.50
2014,08,12,02,09,14.40
2014,08,12,02,10,14.40
2014,08,12,02,11,14.40
2014,08,12,02,12,14.40
2014,08,12,02,13,14.40
2014,08,12,02,14,14.40
2014,08,12,02,15,14.40
2014,08,12,02,16,14.40
2014,08,12,02,17,14.40
2014,08,12,02,18,14.40
2014,08,12,02,19,14.40
2014,08,12,02,20,14.30
2014,08,12,02,21,14.30
2014,08,12,02,22,14.20
2014,08,12,02,23,14.10
2014,08,12,02,24,13.90
2014,08,12,02,25,13.80
2014,08,12,02,26,13.70
2014,08,12,02,27,13.60
2014,08,12,02,28,13.50
2014,08,12,02,29,13.40
2014,08,12,02,30,13.30
2014,08,12,02,31,13.20
2014,08,12,02,32,13.10
2014,08,12,02,33,13.00
2014,08,12,02,34,12.90
2014,08,12,02,35,12.90
2014,08,12,02,36,12.80
2014,08,12,02,37,12.80
2014,08,12,02,38,12.70
2014,08,12,02,39,12.70
2014,08,12,02,40,12.70
2014,08,12,02,41,12.70
2014,08,12,02,42,12.60
2014,08,12,02,43,12.60
2014,08,12,02,44,12.50
2014,08,12,02,45,12.50
2014,08,12,02,46,12.40
2014,08,12,02,47,12.40
2014,08,12,02,48,12.40
2014,08,12,02,49,12.30
2014,08,12,02,50,12.30
2014,08,12,02,51,12.30
2014,08,12,02,52,12.30
2014,08,12,02,53,12.30
2014,08,12,02,54,12.20
2014,08,12,02,55,12.20
2014,08,12,02,56,12.20
2014,08,12,02,57,12.20
2014,08,12,02,58,12.20
2014,08,12,02,59,12.20
2014,08,12,03,00,12.20
2014,08,12,03,01,12.20
2014,08,12,03,02,12.20
2014,08,12,03,03,12.20
2014,08,12,03,04,12.20
2014,08,12,03,05,12.20
2014,08,12,03,06,12.20
2014,08,12,03,07,12.30
2014,08,12,03,08,12.20
2014,08,12,03,09,12.30
2014,08,12,03,10,12.30
2014,08,12,03,11,12.20
2014,08,12,03,12,12.30
2014,08,12,03,13,12.30
2014,08,12,03,14,12.30
2014,08,12,03,15,12.20
2014,08,12,03,16,12.20
2014,08,12,03,17,12.20
2014,08,12,03,18,12.20
2014,08,12,03,19,12.20
2014,08,12,03,20,12.20
2014,08,12,03,21,12.10
2014,08,12,03,22,12.10
2014,08,12,03,23,12.10
2014,08,12,03,24,12.10
2014,08,12,03,25,12.10
2014,08,12,03,26,12.10
2014,08,12,03,27,12.10
2014,08,12,03,28,12.10
2014,08,12,03,29,12.10
2014,08,12,03,30,12.00
2014,08,12,03,31,12.00
2014,08,12,03,32,12.00
2014,08,12,03,33,12.00
2014,08,12,03,34,12.00
2014,08,12,03,35,12.00
2014,08,12,03,36,12.00
2014,08,12,03,37,12.00
2014,08,12,03,38,12.00
2014,08,12,03,39,12.00
2014,08,12,03,40,12.00
2014,08,12,03,41,12.00
2014,08,12,03,42,12.00
2014,08,12,03,43,12.10
2014,08,12,03,44,12.10
2014,08,12,03,45,12.10
2014,08,12,03,46,12.10
2014,08,12,03,47,12.10
2014,08,12,03,48,12.10
2014,08,12,03,49,12.10
2014,08,12,03,50,12.10
2014,08,12,03,51,12.10
2014,08,12,03,52,12.10
2014,08,12,03,53,12.10
2014,08,12,03,54,12.10
2014,08,12,03,55,12.10
2014,08,12,03,56,12.10
2014,08,12,03,57,12.10
2014,08,12,03,58,12.20
2014,08,12,03,59,12.20
2014,08,12,04,00,12.20
2014,08,12,04,01,12.20
2014,08,12,04,02,12.20
2014,08,12,04,03,12.20
2014,08,12,04,04,12.20
2014,08,12,04,05,12.20
2014,08,12,04,06,12.20
2014,08,12,04,07,12.20
2014,08,12,04,08,12.20
2014,08,12,04,09,12.20
2014,08,12,04,10,12.20
2014,08,12,04,11,12.20
2014,08,12,04,12,12.20
2014,08,12,04,13,12.30
2014,08,12,04,14,12.30
2014,08,12,04,15,12.30
2014,08,12,04,16,12.30
2014,08,12,04,17,12.30
2014,08,12,04,18,12.40
2014,08,12,04,19,12.40
2014,08,12,04,20,12.40
2014,08,12,04,21,12.40
2014,08,12,04,22,12.50
2014,08,12,04,23,12.50
2014,08,12,04,24,12.50
2014,08,12,04,25,12.50
2014,08,12,04,26,12.60
2014,08,12,04,27,12.60
2014,08,12,04,28,12.60
2014,08,12,04,29,12.60
2014,08,12,04,30,12.60
2014,08,12,04,31,12.60
2014,08,12,04,32,12.60
2014,08,12,04,33,12.60
2014,08,12,04,34,12.70
2014,08,12,04,35,12.70
2014,08,12,04,36,12.70
2014,08,12,04,37,12.70
2014,08,12,04,38,12.70
2014,08,12,04,39,12.70
2014,08,12,04,40,12.80
2014,08,12,04,41,12.80
2014,08,12,04,42,12.80
2014,08,12,04,43,12.90
2014,08,12,04,44,12.90
2014,08,12,04,45,12.90
2014,08,12,04,46,12.90
2014,08,12,04,47,12.90
2014,08,12,04,48,12.90
2014,08,12,04,49,12.90
2014,08,12,04,50,12.90
2014,08,12,04,51,12.90
2014,08,12,04,52,12.90
2014,08,12,04,53,13.00
2014,08,12,04,54,13.00
2014,08,12,04,55,13.10
2014,08,12,04,56,13.10
2014,08,12,04,57,13.20
2014,08,12,04,58,13.20
2014,08,12,04,59,13.20
2014,08,12,05,00,13.30
2014,08,12,05,01,13.30
2014,08,12,05,02,13.40
2014,08,12,05,03,13.40
2014,08,12,05,04,13.40
2014,08,12,05,05,13.50
2014,08,12,05,06,13.50
2014,08,12,05,07,13.60
2014,08,12,05,08,13.60
2014,08,12,05,09,13.60
2014,08,12,05,10,13.60
2014,08,12,05,11,13.60
2014,08,12,05,12,13.60
2014,08,12,05,13,13.60
2014,08,12,05,14,13.60
2014,08,12,05,15,13.60
2014,08,12,05,16,13.60
2014,08,12,05,17,13.60
2014,08,12,05,18,13.60
2014,08,12,05,19,13.50
2014,08,12,05,20,13.50
2014,08,12,05,21,13.40
2014,08,12,05,22,13.40
2014,08,12,05,23,13.30
2014,08,12,05,24,13.30
2014,08,12,05,25,13.30
2014,08,12,05,26,13.30
2014,08,12,05,27,13.30
2014,08,12,05,28,13.30
2014,08,12,05,29,13.30
2014,08,12,05,30,13.30
2014,08,12,05,31,13.20
2014,08,12,05,32,13.30
2014,08,12,05,33,13.30
2014,08,12,05,34,13.30
2014,08,12,05,35,13.30
2014,08,12,05,36,13.30
2014,08,12,05,37,13.30
2014,08,12,05,38,13.30
2014,08,12,05,39,13.30
2014,08,12,05,40,13.30
2014,08,12,05,41,13.30
2014,08,12,05,42,13.30
2014,08,12,05,43,13.40
2014,08,12,05,44,13.40
2014,08,12,05,45,13.40
2014,08,12,05,46,13.40
2014,08,12,05,47,13.40
2014,08,12,05,48,13.40
2014,08,12,05,49,13.40
2014,08,12,05,50,13.40
2014,08,12,05,51,13.40
2014,08,12,05,52,13.50
2014,08,12,05,53,13.50
2014,08,12,05,54,13.50
2014,08,12,05,55,13.50
2014,08,12,05,56,13.50
2014,08,12,05,57,13.50
2014,08,12,05,58,13.40
2014,08,12,05,59,13.40
2014,08,12,06,00,13.40
2014,08,12,06,01,13.40
2014,08,12,06,02,13.30
2014,08,12,06,03,13.20
2014,08,12,06,04,13.20
2014,08,12,06,05,13.00
2014,08,12,06,06,12.90
2014,08,12,06,07,12.90
2014,08,12,06,08,12.80
2014,08,12,06,09,12.80
2014,08,12,06,10,12.70
2014,08,12,06,11,12.70
2014,08,12,06,12,12.60
2014,08,12,06,13,12.50
2014,08,12,06,14,12.40
2014,08,12,06,15,12.40
2014,08,12,06,16,12.30
2014,08,12,06,17,12.30
2014,08,12,06,18,12.30
2014,08,12,06,19,12.20
2014,08,12,06,20,12.20
2014,08,12,06,21,12.20
2014,08,12,06,22,12.20
2014,08,12,06,23,12.20
2014,08,12,06,24,12.20
2014,08,12,06,25,12.20
2014,08,12,06,26,12.20
2014,08,12,06,27,12.20
2014,08,12,06,28,12.20
2014,08,12,06,29,12.20
2014,08,12,06,30,12.20
2014,08,12,06,31,12.20
2014,08,12,06,32,12.20
2014,08,12,06,33,12.20
2014,08,12,06,34,12.20
2014,08,12,06,35,12.20
2014,08,12,06,36,12.30
2014,08,12,06,37,12.30
2014,08,12,06,38,12.30
2014,08,12,06,39,12.30
2014,08,12,06,40,12.30
2014,08,12,06,41,12.30
2014,08,12,06,42,12.30
2014,08,12,06,43,12.30
2014,08,12,06,44,12.30
2014,08,12,06,45,12.30
2014,08,12,06,46,12.30
2014,08,12,06,47,12.30
2014,08,12,06,48,12.40
2014,08,12,06,49,12.40
2014,08,12,06,50,12.40
2014,08,12,06,51,12.50
2014,08,12,06,52,12.50
2014,08,12,06,53,12.50
2014,08,12,06,54,12.50
2014,08,12,06,55,12.50
2014,08,12,06,56,12.50
2014,08,12,06,57,12.50
2014,08,12,06,58,12.40
2014,08,12,06,59,12.40
2014,08,12,07,00,12.40
2014,08,12,07,01,12.40
2014,08,12,07,02,12.30
2014,08,12,07,03,12.30
2014,08,12,07,04,12.20
2014,08,12,07,05,12.20
2014,08,12,07,06,12.20
2014,08,12,07,07,12.20
2014,08,12,07,08,12.20
2014,08,12,07,09,12.20
2014,08,12,07,10,12.20
2014,08,12,07,11,12.20
2014,08,12,07,12,12.20
2014,08,12,07,13,12.20
2014,08,12,07,14,12.20
2014,08,12,07,15,12.20
2014,08,12,07,16,12.30
2014,08,12,07,17,12.30
2014,08,12,07,18,12.30
2014,08,12,07,19,12.30
2014,08,12,07,20,12.30
2014,08,12,07,21,12.30
2014,08,12,07,22,12.30
2014,08,12,07,23,12.30
2014,08,12,07,24,12.40
2014,08,12,07,25,12.40
2014,08,12,07,26,12.40
2014,08,12,07,27,12.40
2014,08,12,07,28,12.50
2014,08,12,07,29,12.50
2014,08,12,07,30,12.60
2014,08,12,07,31,12.60
2014,08,12,07,32,12.60
2014,08,12,07,33,12.70
2014,08,12,07,34,12.70
2014,08,12,07,35,12.80
2014,08,12,07,36,12.80
2014,08,12,07,37,12.80
2014,08,12,07,38,12.90
2014,08,12,07,39,12.90
2014,08,12,07,40,12.90
2014,08,12,07,41,12.90
2014,08,12,07,42,12.90
2014,08,12,07,43,12.90
2014,08,12,07,44,12.90
2014,08,12,07,45,12.90
2014,08,12,07,46,12.90
2014,08,12,07,47,12.80
2014,08,12,07,48,12.70
2014,08,12,07,49,12.60
2014,08,12,07,50,12.60
2014,08,12,07,51,12.50
2014,08,12,07,52,12.40
2014,08,12,07,53,12.30
2014,08,12,07,54,12.20
2014,08,12,07,55,12.20
2014,08,12,07,56,12.20
2014,08,12,07,57,12.10
2014,08,12,07,58,12.10
2014,08,12,07,59,12.10
2014,08,12,08,00,12.10
2014,08,12,08,01,12.20
2014,08,12,08,02,12.20
2014,08,12,08,03,12.20
2014,08,12,08,04,12.20
2014,08,12,08,05,12.20
2014,08,12,08,06,12.20
2014,08,12,08,07,12.20
2014,08,12,08,08,12.20
2014,08,12,08,09,12.20
2014,08,12,08,10,12.20
2014,08,12,08,11,12.10
2014,08,12,08,12,12.10
2014,08,12,08,13,12.10
2014,08,12,08,14,12.20
2014,08,12,08,15,12.20
2014,08,12,08,16,12.20
2014,08,12,08,17,12.20
2014,08,12,08,18,12.20
2014,08,12,08,19,12.20
2014,08,12,08,20,12.20
2014,08,12,08,21,12.20
2014,08,12,08,22,12.30
2014,08,12,08,23,12.30
2014,08,12,08,24,12.30
2014,08,12,08,25,12.30
2014,08,12,08,26,12.30
2014,08,12,08,27,12.40
2014,08,12,08,28,12.40
2014,08,12,08,29,12.40
2014,08,12,08,30,12.40
2014,08,12,08,31,12.40
2014,08,12,08,32,12.40
2014,08,12,08,33,12.50
2014,08,12,08,34,12.50
2014,08,12,08,35,12.50
2014,08,12,08,36,12.50
2014,08,12,08,37,12.60
2014,08,12,08,38,12.60
2014,08,12,08,39,12.60
2014,08,12,08,40,12.60
2014,08,12,08,41,12.60
2014,08,12,08,42,12.70
2014,08,12,08,43,12.70
2014,08,12,08,44,12.70
2014,08,12,08,45,12.70
2014,08,12,08,46,12.80
2014,08,12,08,47,12.80
2014,08,12,08,48,12.80
2014,08,12,08,49,12.90
2014,08,12,08,50,13.00
2014,08,12,08,51,13.00
2014,08,12,08,52,13.10
2014,08,12,08,53,13.10
2014,08,12,08,54,13.20
2014,08,12,08,55,13.20
2014,08,12,08,56,13.30
2014,08,12,08,57,13.30
2014,08,12,08,58,13.40
2014,08,12,08,59,13.40
2014,08,12,09,00,13.30
2014,08,12,09,01,13.30
2014,08,12,09,02,13.30
2014,08,12,09,03,13.20
2014,08,12,09,04,13.20
2014,08,12,09,05,13.20
2014,08,12,09,06,13.20
2014,08,12,09,07,13.20
2014,08,12,09,08,13.20
2014,08,12,09,09,13.20
2014,08,12,09,10,13.20
2014,08,12,09,11,13.20
2014,08,12,09,12,13.20
2014,08,12,09,13,13.30
2014,08,12,09,14,13.30
2014,08,12,09,15,13.30
2014,08,12,09,16,13.30
2014,08,12,09,17,13.40
2014,08,12,09,18,13.40
2014,08,12,09,19,13.50
2014,08,12,09,20,13.50
2014,08,12,09,21,13.50
2014,08,12,09,22,13.60
2014,08,12,09,23,13.60
2014,08,12,09,24,13.60
2014,08,12,09,25,13.70
2014,08,12,09,26,13.70
2014,08,12,09,27,13.70
2014,08,12,09,28,13.70
2014,08,12,09,29,13.80
2014,08,12,09,30,13.80
2014,08,12,09,31,13.80
2014,08,12,09,32,13.80
2014,08,12,09,33,13.80
2014,08,12,09,34,13.80
2014,08,12,09,35,13.90
2014,08,12,09,36,13.90
2014,08,12,09,37,13.90
2014,08,12,09,38,13.90
2014,08,12,09,39,14.00
2014,08,12,09,40,14.00
2014,08,12,09,41,14.00
2014,08,12,09,42,14.00
2014,08,12,09,43,14.10
2014,08,12,09,44,14.10
2014,08,12,09,45,14.10
2014,08,12,09,46,14.20
2014,08,12,09,47,14.20
2014,08,12,09,48,14.20
2014,08,12,09,49,14.30
2014,08,12,09,50,14.30
2014,08,12,09,51,14.40
2014,08,12,09,52,14.50
2014,08,12,09,53,14.50
2014,08,12,09,54,14.60
2014,08,12,09,55,14.70
2014,08,12,09,56,14.80
2014,08,12,09,57,14.90
2014,08,12,09,58,15.00
2014,08,12,09,59,15.10
2014,08,12,10,00,15.10
2014,08,12,10,01,15.20
2014,08,12,10,02,15.30
2014,08,12,10,03,15.40
2014,08,12,10,04,15.50
2014,08,12,10,05,15.60
2014,08,12,10,06,15.70
2014,08,12,10,07,15.70
2014,08,12,10,08,15.80
2014,08,12,10,09,15.90
2014,08,12,10,10,16.00
2014,08,12,10,11,16.00
2014,08,12,10,12,16.10
2014,08,12,10,13,16.20
2014,08,12,10,14,16.30
2014,08,12,10,15,16.40
2014,08,12,10,16,16.40
2014,08,12,10,17,16.40
2014,08,12,10,18,16.50
2014,08,12,10,19,16.50
2014,08,12,10,20,16.50
2014,08,12,10,21,16.50
2014,08,12,10,22,16.60
2014,08,12,10,23,16.60
2014,08,12,10,24,16.50
2014,08,12,10,25,16.50
2014,08,12,10,26,16.50
2014,08,12,10,27,16.50
2014,08,12,10,28,16.50
2014,08,12,10,29,16.50
2014,08,12,10,30,16.50
2014,08,12,10,31,16.60
2014,08,12,10,32,16.60
2014,08,12,10,33,16.60
2014,08,12,10,34,16.70
2014,08,12,10,35,16.70
2014,08,12,10,36,16.60
2014,08,12,10,37,16.60
2014,08,12,10,38,16.60
2014,08,12,10,39,16.50
2014,08,12,10,40,16.50
2014,08,12,10,41,16.40
2014,08,12,10,42,16.40
2014,08,12,10,43,16.30
2014,08,12,10,44,16.30
2014,08,12,10,45,16.30
2014,08,12,10,46,16.20
2014,08,12,10,47,16.20
2014,08,12,10,48,16.20
2014,08,12,10,49,16.20
2014,08,12,10,50,16.20
2014,08,12,10,51,16.20
2014,08,12,10,52,16.20
2014,08,12,10,53,16.20
2014,08,12,10,54,16.20
2014,08,12,10,55,16.30
2014,08,12,10,56,16.30
2014,08,12,10,57,16.30
2014,08,12,10,58,16.30
2014,08,12,10,59,16.30
2014,08,12,11,00,16.40
2014,08,12,11,01,16.40
2014,08,12,11,02,16.50
2014,08,12,11,03,16.50
2014,08,12,11,04,16.50
2014,08,12,11,05,16.50
2014,08,12,11,06,16.60
2014,08,12,11,07,16.60
2014,08,12,11,08,16.60
2014,08,12,11,09,16.70
2014,08,12,11,10,16.70
2014,08,12,11,11,16.70
2014,08,12,11,12,16.70
2014,08,12,11,13,16.70
2014,08,12,11,14,16.80
2014,08,12,11,15,16.80
2014,08,12,11,16,16.70
2014,08,12,11,17,16.70
2014,08,12,11,18,16.70
2014,08,12,11,19,16.80
2014,08,12,11,20,16.80
2014,08,12,11,21,16.80
2014,08,12,11,22,16.80
2014,08,12,11,23,16.90
2014,08,12,11,24,16.90
2014,08,12,11,25,17.00
2014,08,12,11,26,17.00
2014,08,12,11,27,17.10
2014,08,12,11,28,17.20
2014,08,12,11,29,17.30
2014,08,12,11,30,17.30
2014,08,12,11,31,17.40
2014,08,12,11,32,17.50
2014,08,12,11,33,17.60
2014,08,12,11,34,17.70
2014,08,12,11,35,17.80
2014,08,12,11,36,18.00
2014,08,12,11,37,18.10
2014,08,12,11,38,18.20
2014,08,12,11,39,18.20
2014,08,12,11,40,18.40
2014,08,12,11,41,18.50
2014,08,12,11,42,18.70
2014,08,12,11,43,18.80
2014,08,12,11,44,19.00
2014,08,12,11,45,19.10
2014,08,12,11,46,19.20
2014,08,12,11,47,19.30
2014,08,12,11,48,19.40
2014,08,12,11,49,19.50
2014,08,12,11,50,19.70
2014,08,12,11,51,19.70
2014,08,12,11,52,19.80
2014,08,12,11,53,19.90
2014,08,12,11,54,19.90
2014,08,12,11,55,19.90
2014,08,12,11,56,19.90
2014,08,12,11,57,19.90
2014,08,12,11,58,19.90
2014,08,12,11,59,19.80
2014,08,12,12,00,19.80
2014,08,12,12,01,19.80
2014,08,12,12,02,19.70
2014,08,12,12,03,19.70
2014,08,12,12,04,19.70
2014,08,12,12,05,19.70
2014,08,12,12,06,19.70
2014,08,12,12,07,19.70
2014,08,12,12,08,19.80
2014,08,12,12,09,19.80
2014,08,12,12,10,19.80
2014,08,12,12,11,19.70
2014,08,12,12,12,19.70
2014,08,12,12,13,19.70
2014,08,12,12,14,19.70
2014,08,12,12,15,19.70
2014,08,12,12,16,19.70
2014,08,12,12,17,19.70
2014,08,12,12,18,19.70
2014,08,12,12,19,19.70
2014,08,12,12,20,19.70
2014,08,12,12,21,19.70
2014,08,12,12,22,19.70
2014,08,12,12,23,19.80
2014,08,12,12,24,19.80
2014,08,12,12,25,19.80
2014,08,12,12,26,19.80
2014,08,12,12,27,19.80
2014,08,12,12,28,19.80
2014,08,12,12,29,19.80
2014,08,12,12,30,19.80
2014,08,12,12,31,19.80
2014,08,12,12,32,19.90
2014,08,12,12,33,19.90
2014,08,12,12,34,20.00
2014,08,12,12,35,20.00
2014,08,12,12,36,20.00
2014,08,12,12,37,20.00
2014,08,12,12,38,20.00
2014,08,12,12,39,20.00
2014,08,12,12,40,20.00
2014,08,12,12,41,20.10
2014,08,12,12,42,20.20
2014,08,12,12,43,20.20
2014,08,12,12,44,20.30
2014,08,12,12,45,20.40
2014,08,12,12,46,20.50
2014,08,12,12,47,20.50
2014,08,12,12,48,20.50
2014,08,12,12,49,20.20
2014,08,12,12,50,19.90
2014,08,12,12,51,19.60
2014,08,12,12,52,19.30
2014,08,12,12,53,19.00
2014,08,12,12,54,18.80
2014,08,12,12,55,18.70
2014,08,12,12,56,18.60
2014,08,12,12,57,18.50
2014,08,12,12,58,18.50
2014,08,12,12,59,18.50
2014,08,12,13,00,18.40
2014,08,12,13,01,18.30
2014,08,12,13,02,18.20
2014,08,12,13,03,18.20
2014,08,12,13,04,18.20
2014,08,12,13,05,18.10
2014,08,12,13,06,17.80
2014,08,12,13,07,17.50
2014,08,12,13,08,17.20
2014,08,12,13,09,17.00
2014,08,12,13,10,16.80
2014,08,12,13,11,16.70
2014,08,12,13,12,16.60
2014,08,12,13,13,16.50
2014,08,12,13,14,16.50
2014,08,12,13,15,16.40
2014,08,12,13,16,16.40
2014,08,12,13,17,16.20
2014,08,12,13,18,16.00
2014,08,12,13,19,15.90
2014,08,12,13,20,15.70
2014,08,12,13,21,15.50
2014,08,12,13,22,15.30
2014,08,12,13,23,15.20
2014,08,12,13,24,15.10
2014,08,12,13,25,15.00
2014,08,12,13,26,14.90
2014,08,12,13,27,14.80
2014,08,12,13,28,14.80
2014,08,12,13,29,14.70
2014,08,12,13,30,14.60
2014,08,12,13,31,14.60
2014,08,12,13,32,14.60
2014,08,12,13,33,14.50
2014,08,12,13,34,14.40
2014,08,12,13,35,14.50
2014,08,12,13,36,14.40
2014,08,12,13,37,14.40
2014,08,12,13,38,14.40
2014,08,12,13,39,14.40
2014,08,12,13,40,14.40
2014,08,12,13,41,14.40
2014,08,12,13,42,14.40
2014,08,12,13,43,14.40
2014,08,12,13,44,14.40
2014,08,12,13,45,14.40
2014,08,12,13,46,14.40
2014,08,12,13,47,14.40
2014,08,12,13,48,14.30
2014,08,12,13,49,14.30
2014,08,12,13,50,14.30
2014,08,12,13,51,14.30
2014,08,12,13,52,14.30
2014,08,12,13,53,14.30
2014,08,12,13,54,14.20
2014,08,12,13,55,14.20
2014,08,12,13,56,14.20
2014,08,12,13,57,14.20
2014,08,12,13,58,14.30
2014,08,12,13,59,14.30
2014,08,12,14,00,14.30
2014,08,12,14,01,14.30
2014,08,12,14,02,14.30
2014,08,12,14,03,14.30
2014,08,12,14,04,14.30
2014,08,12,14,05,14.30
2014,08,12,14,06,14.30
2014,08,12,14,07,14.40
2014,08,12,14,08,14.40
2014,08,12,14,09,14.40
2014,08,12,14,10,14.40
2014,08,12,14,11,14.50
2014,08,12,14,12,14.50
2014,08,12,14,13,14.50
2014,08,12,14,14,14.60
2014,08,12,14,15,14.60
2014,08,12,14,16,14.60
2014,08,12,14,17,14.60
2014,08,12,14,18,14.60
2014,08,12,14,19,14.60
2014,08,12,14,20,14.70
2014,08,12,14,21,14.70
2014,08,12,14,22,14.70
2014,08,12,14,23,14.80
2014,08,12,14,24,14.80
2014,08,12,14,25,14.90
2014,08,12,14,26,14.90
2014,08,12,14,27,15.00
2014,08,12,14,28,15.10
2014,08,12,14,29,15.20
2014,08,12,14,30,15.20
2014,08,12,14,31,15.30
2014,08,12,14,32,15.40
2014,08,12,14,33,15.60
2014,08,12,14,34,15.70
2014,08,12,14,35,15.80
2014,08,12,14,36,15.80
2014,08,12,14,37,15.80
2014,08,12,14,38,15.90
2014,08,12,14,39,16.00
2014,08,12,14,40,16.00
2014,08,12,14,41,16.10
2014,08,12,14,42,16.20
2014,08,12,14,43,16.20
2014,08,12,14,44,16.30
2014,08,12,14,45,16.40
2014,08,12,14,46,16.50
2014,08,12,14,47,16.50
2014,08,12,14,48,16.60
2014,08,12,14,49,16.60
2014,08,12,14,50,16.60
2014,08,12,14,51,16.60
2014,08,12,14,52,16.60
2014,08,12,14,53,16.70
2014,08,12,14,54,16.70
2014,08,12,14,55,16.70
2014,08,12,14,56,16.70
2014,08,12,14,57,16.60
2014,08,12,14,58,16.60
2014,08,12,14,59,16.60
2014,08,12,15,00,16.60
2014,08,12,15,01,16.50
2014,08,12,15,02,16.50
2014,08,12,15,03,16.50
2014,08,12,15,04,16.40
2014,08,12,15,05,16.40
2014,08,12,15,06,16.40
2014,08,12,15,07,16.40
2014,08,12,15,08,16.40
2014,08,12,15,09,16.40
2014,08,12,15,10,16.40
2014,08,12,15,11,16.40
2014,08,12,15,12,16.40
2014,08,12,15,13,16.40
2014,08,12,15,14,16.40
2014,08,12,15,15,16.50
2014,08,12,15,16,16.50
2014,08,12,15,17,16.50
2014,08,12,15,18,16.50
2014,08,12,15,19,16.60
2014,08,12,15,20,16.60
2014,08,12,15,21,16.60
2014,08,12,15,22,16.60
2014,08,12,15,23,16.70
2014,08,12,15,24,16.70
2014,08,12,15,25,16.80
2014,08,12,15,26,16.80
2014,08,12,15,27,16.80
2014,08,12,15,28,16.80
2014,08,12,15,29,16.90
2014,08,12,15,30,16.90
2014,08,12,15,31,16.90
2014,08,12,15,32,17.00
2014,08,12,15,33,17.10
2014,08,12,15,34,17.10
2014,08,12,15,35,17.10
2014,08,12,15,36,17.20
2014,08,12,15,37,17.20
2014,08,12,15,38,17.30
2014,08,12,15,39,17.30
2014,08,12,15,40,17.40
2014,08,12,15,41,17.40
2014,08,12,15,42,17.50
2014,08,12,15,43,17.50
2014,08,12,15,44,17.60
2014,08,12,15,45,17.70
2014,08,12,15,46,17.70
2014,08,12,15,47,17.80
2014,08,12,15,48,17.80
2014,08,12,15,49,17.90
2014,08,12,15,50,17.90
2014,08,12,15,51,18.00
2014,08,12,15,52,18.00
2014,08,12,15,53,18.10
2014,08,12,15,54,18.20
2014,08,12,15,55,18.20
2014,08,12,15,56,18.30
2014,08,12,15,57,18.30
2014,08,12,15,58,18.40
2014,08,12,15,59,18.50
2014,08,12,16,00,18.60
2014,08,12,16,01,18.70
2014,08,12,16,02,18.80
2014,08,12,16,03,19.00
2014,08,12,16,04,19.10
2014,08,12,16,05,19.20
2014,08,12,16,06,19.40
2014,08,12,16,07,19.50
2014,08,12,16,08,19.70
2014,08,12,16,09,19.80
2014,08,12,16,10,20.00
2014,08,12,16,11,20.30
2014,08,12,16,12,20.50
2014,08,12,16,13,20.80
2014,08,12,16,14,21.10
2014,08,12,16,15,21.40
2014,08,12,16,16,21.60
2014,08,12,16,17,21.80
2014,08,12,16,18,21.90
2014,08,12,16,19,22.10
2014,08,12,16,20,22.20
2014,08,12,16,21,22.30
2014,08,12,16,22,22.30
2014,08,12,16,23,22.40
2014,08,12,16,24,22.40
2014,08,12,16,25,22.30
2014,08,12,16,26,22.30
2014,08,12,16,27,22.40
2014,08,12,16,28,22.40
2014,08,12,16,29,22.50
2014,08,12,16,30,22.50
2014,08,12,16,31,22.60
2014,08,12,16,32,22.70
2014,08,12,16,33,22.80
2014,08,12,16,34,22.80
2014,08,12,16,35,22.90
2014,08,12,16,36,23.00
2014,08,12,16,37,23.20
2014,08,12,16,38,23.30
2014,08,12,16,39,23.40
2014,08,12,16,40,23.50
2014,08,12,16,41,23.60
2014,08,12,16,42,23.60
2014,08,12,16,43,23.70
2014,08,12,16,44,23.80
2014,08,12,16,45,23.90
2014,08,12,16,46,24.00
2014,08,12,16,47,24.10
2014,08,12,16,48,24.20
2014,08,12,16,49,24.20
2014,08,12,16,50,24.30
2014,08,12,16,51,24.40
2014,08,12,16,52,24.40
2014,08,12,16,53,24.50
2014,08,12,16,54,24.60
2014,08,12,16,55,24.60
2014,08,12,16,56,24.70
2014,08,12,16,57,24.70
2014,08,12,16,58,24.70
2014,08,12,16,59,24.70
2014,08,12,17,00,24.80
2014,08,12,17,01,24.80
2014,08,12,17,02,24.80
2014,08,12,17,03,24.80
2014,08,12,17,04,24.80
2014,08,12,17,05,24.80
2014,08,12,17,06,24.80
2014,08,12,17,07,24.80
2014,08,12,17,08,24.80
2014,08,12,17,09,24.80
2014,08,12,17,10,24.80
2014,08,12,17,11,24.80
2014,08,12,17,12,24.80
2014,08,12,17,13,24.80
2014,08,12,17,14,24.80
2014,08,12,17,15,24.80
2014,08,12,17,16,24.80
2014,08,12,17,17,24.80
2014,08,12,17,18,24.90
2014,08,12,17,19,24.90